(77042) = 2001 CK41

Discovered at Socorro on 2001-02-15 by LINEAR.

Orbit

Orbit type: Main Belt

Note: WebGL enabled browser required.

epoch2023-09-13.0
epoch JD2460200.5
perihelion date2023-05-27.89422
perihelion JD2460092.39422
argument of perihelion (°)176.46320
ascending node (°)73.03354
inclination (°)16.11826
eccentricity0.2178207
perihelion distance (AU)2.0763998
Tisserand w.r.t. Jupiter3.3
ΔV w.r.t. Earth (km/sec)10.3
semimajor axis (AU)2.6546341
mean anomaly (°)24.63461
mean daily motion (°/day)0.22787510
aphelion distance (AU)3.233
period (years)4.33
P-vector [x]-0.34794112
P-vector [y]-0.86682338
P-vector [z]-0.35714730
Q-vector [x]0.89912554
Q-vector [y]-0.20063255
Q-vector [z]-0.38899850
absolute magnitude14.77
phase slope0.15
uncertainty0
referenceMPEC 2024-A34
observations used1415
oppositions20
arc length (days)11919
first opposition used1990
last opposition used2023
residual rms (arc-secs)0.68
perturbers coarse indicatorM-v
perturbers precise indicator003Ek
first observation date used1990-12-19.0
last observation date used2023-08-07.0
computer nameMPCLINUX
JD of orbit computation2456937.357647
perihelion JD uncertainty (days)3.8535E-05
argument of perihelion uncertainty (°)1.7269E-05
ascending node uncertainty (°)1.4909E-05
inclination uncertainty (°)3.7800E-06
eccentricity uncertainty 3.3352E-08
perihelion distance uncertainty (AU)8.8589E-08
Minimum Orbit Intersection Distances (in AU)
for orbit epoch: 2460200.5, reference: E2024-A34
Mercury1.61142
Venus1.35079
Earth1.06169
Mars0.56816
Jupiter1.80842
Saturn5.83956
Uranus15.759
Neptune26.6765

Observations

1435 total observations over interval: 1990 12 19.08807 – 2023 08 07.126250
These data are available for download (format description).

Date (UT) J2000 RA J2000 Dec Magn Location Ref
1990 12 19.08807 04 11 55.29 +20 15 46.7 21.2 V 691 – Steward Observatory, Kitt Peak-Spacewatch MPS 78063
1990 12 19.10992 04 11 54.08 +20 15 48.8 21.2 V 691 – Steward Observatory, Kitt Peak-Spacewatch MPS 78063
1990 12 19.13159 04 11 52.91 +20 15 50.6 21.6 V 691 – Steward Observatory, Kitt Peak-Spacewatch MPS 78063
1997 04 14.32953 16 49 24.77 -12 32 23.7 20.4   704 – Lincoln Laboratory ETS, New Mexico MPS 65724
1997 04 14.37119 16 49 24.88 -12 32 38.5   704 – Lincoln Laboratory ETS, New Mexico MPS 65724
2001 02 02.39328 13 17 53.38 +15 32 27.3 18.3   704 – Lincoln Laboratory ETS, New Mexico MPS 26968
2001 02 02.40804 13 17 53.76 +15 32 32.3 19.3   704 – Lincoln Laboratory ETS, New Mexico MPS 26968
2001 02 02.42283 13 17 54.17 +15 32 36.0 19.1   704 – Lincoln Laboratory ETS, New Mexico MPS 26968
2001 02 02.43773 13 17 54.54 +15 32 40.2 19.1   704 – Lincoln Laboratory ETS, New Mexico MPS 26968
2001 02 02.45253 13 17 54.98 +15 32 45.1 19.2   704 – Lincoln Laboratory ETS, New Mexico MPS 26968
2001 02 15.38038 13 21 45.00 +16 50 06.5 18.3   704 – Lincoln Laboratory ETS, New Mexico MPS 26968
2001 02 15.39551 13 21 45.10 +16 50 13.2 19.1   704 – Lincoln Laboratory ETS, New Mexico MPS 26968
2001 02 15.41082 13 21 45.23 +16 50 18.9 19.2   704 – Lincoln Laboratory ETS, New Mexico MPS 26968
2001 02 15.42520 13 21 45.19 +16 50 25.8 19.2   704 – Lincoln Laboratory ETS, New Mexico MPS 26968
2001 02 15.44035 13 21 45.34 +16 50 32.1 19.4   704 – Lincoln Laboratory ETS, New Mexico MPS 26968
2001 02 16.36374 13 21 50.75 +16 56 50.8 18.0   704 – Lincoln Laboratory ETS, New Mexico MPS 26968
2001 02 16.37791 13 21 50.80 +16 56 57.2 18.6   704 – Lincoln Laboratory ETS, New Mexico MPS 26968
2001 02 16.38279 13 21 50.85 +16 56 58.3 18.6   704 – Lincoln Laboratory ETS, New Mexico MPS 26968
2001 02 16.39206 13 21 50.77 +16 57 02.4 19.0   704 – Lincoln Laboratory ETS, New Mexico MPS 26968
2001 02 16.39735 13 21 50.84 +16 57 04.7 18.6   704 – Lincoln Laboratory ETS, New Mexico MPS 26968
2001 02 16.40622 13 21 50.86 +16 57 08.2 19.0   704 – Lincoln Laboratory ETS, New Mexico MPS 26968
2001 02 16.41186 13 21 50.89 +16 57 11.9 19.0   704 – Lincoln Laboratory ETS, New Mexico MPS 26968
2001 02 16.42043 13 21 50.93 +16 57 14.7 18.7   704 – Lincoln Laboratory ETS, New Mexico MPS 26968
2001 02 16.42596 13 21 50.92 +16 57 16.2 18.9   704 – Lincoln Laboratory ETS, New Mexico MPS 26968
2001 02 16.44003 13 21 50.90 +16 57 24.0 19.5   704 – Lincoln Laboratory ETS, New Mexico MPS 26968
2001 02 20.43426 13 21 55.44 +17 25 46.5 18.4   704 – Lincoln Laboratory ETS, New Mexico MPS 26968
2001 02 20.44821 13 21 55.39 +17 25 53.7 18.8   704 – Lincoln Laboratory ETS, New Mexico MPS 26968
2001 02 20.46226 13 21 55.39 +17 25 58.2 18.8   704 – Lincoln Laboratory ETS, New Mexico MPS 26968
2001 02 20.47630 13 21 55.18 +17 26 04.4 18.6   704 – Lincoln Laboratory ETS, New Mexico MPS 26968
2001 03 05.31989 13 18 45.85 +19 02 49.0 17.9   704 – Lincoln Laboratory ETS, New Mexico MPS 28000
2001 03 05.33319 13 18 45.45 +19 02 54.8 18.6   704 – Lincoln Laboratory ETS, New Mexico MPS 28000
2001 03 05.34661 13 18 45.06 +19 03 01.1 18.3   704 – Lincoln Laboratory ETS, New Mexico MPS 28000
2001 03 05.35981 13 18 44.71 +19 03 08.0 18.0   704 – Lincoln Laboratory ETS, New Mexico MPS 28000
2001 03 05.37290 13 18 44.30 +19 03 13.8 18.3   704 – Lincoln Laboratory ETS, New Mexico MPS 28000
2001 03 15.30642 13 12 53.22 +20 14 10.0 18.0   704 – Lincoln Laboratory ETS, New Mexico MPS 28000
2001 03 15.31910 13 12 52.70 +20 14 16.8 18.5   704 – Lincoln Laboratory ETS, New Mexico MPS 28000
2001 03 15.33180 13 12 52.22 +20 14 20.9 18.3   704 – Lincoln Laboratory ETS, New Mexico MPS 28000
2001 03 15.34447 13 12 51.50 +20 14 24.9 18.1   704 – Lincoln Laboratory ETS, New Mexico MPS 28000
2001 03 15.35716 13 12 50.99 +20 14 30.2 18.0   704 – Lincoln Laboratory ETS, New Mexico MPS 28000
2001 03 18.30522 13 10 36.49 +20 33 09.3 17.3   704 – Lincoln Laboratory ETS, New Mexico MPS 28000
2001 03 18.31849 13 10 35.80 +20 33 13.6 18.0   704 – Lincoln Laboratory ETS, New Mexico MPS 28000
2001 03 18.33175 13 10 35.16 +20 33 18.9 17.9   704 – Lincoln Laboratory ETS, New Mexico MPS 28000
2001 03 18.34499 13 10 34.42 +20 33 23.0 17.8   704 – Lincoln Laboratory ETS, New Mexico MPS 28000
2001 03 18.35833 13 10 33.80 +20 33 28.0 17.5   704 – Lincoln Laboratory ETS, New Mexico MPS 28000
2001 03 20.22982 13 09 02.31 +20 44 27.8 17.5 R 699 – Lowell Observatory-LONEOS MPS 30216
2001 03 20.25952 13 09 00.75 +20 44 37.5   699 – Lowell Observatory-LONEOS MPS 30216
2001 03 20.28923 13 08 59.22 +20 44 47.9   699 – Lowell Observatory-LONEOS MPS 30216
2001 03 20.31898 13 08 57.64 +20 44 58.5   699 – Lowell Observatory-LONEOS MPS 30216
2001 04 14.26192 12 44 53.43 +21 37 09.2 18.6   704 – Lincoln Laboratory ETS, New Mexico MPS 29538
2001 04 14.27521 12 44 52.63 +21 37 06.8 18.6   704 – Lincoln Laboratory ETS, New Mexico MPS 29538
2001 04 14.28839 12 44 51.83 +21 37 03.7 18.5   704 – Lincoln Laboratory ETS, New Mexico MPS 29538
2001 04 14.30172 12 44 51.04 +21 37 02.0 18.5   704 – Lincoln Laboratory ETS, New Mexico MPS 29538
2001 04 14.31497 12 44 50.31 +21 37 00.7 18.4   704 – Lincoln Laboratory ETS, New Mexico MPS 29538
2001 05 20.15727 12 25 23.69 +16 58 58.2 18.3   704 – Lincoln Laboratory ETS, New Mexico MPS 30829
2001 05 20.16967 12 25 23.61 +16 58 48.1 18.5   704 – Lincoln Laboratory ETS, New Mexico MPS 30829
2001 05 20.19350 12 25 23.52 +16 58 31.7 18.8   704 – Lincoln Laboratory ETS, New Mexico MPS 30829
2001 05 20.20537 12 25 23.54 +16 58 22.7 18.9   704 – Lincoln Laboratory ETS, New Mexico MPS 30829
2002 08 13.38583 00 42 16.97 -21 22 16.9 18.8   704 – Lincoln Laboratory ETS, New Mexico MPS 65724
2002 08 13.40137 00 42 16.74 -21 22 25.1 19.4   704 – Lincoln Laboratory ETS, New Mexico MPS 65724
2002 08 13.41696 00 42 16.37 -21 22 31.0 19.2   704 – Lincoln Laboratory ETS, New Mexico MPS 65724
2002 08 13.43258 00 42 16.02 -21 22 39.9 19.3   704 – Lincoln Laboratory ETS, New Mexico MPS 65724
2002 08 13.44821 00 42 15.81 -21 22 46.2 19.2   704 – Lincoln Laboratory ETS, New Mexico MPS 65724
2002 10 07.17918 23 59 17.46 -25 49 18.3 18.7   644 – Palomar Mountain/NEAT MPS 65724
2002 10 07.21057 23 59 15.79 -25 49 15.8 18.8   644 – Palomar Mountain/NEAT MPS 65724
2002 10 07.25078 23 59 13.67 -25 49 12.8 18.7   644 – Palomar Mountain/NEAT MPS 65724
2003 11 21.32298 04 39 57.28 +19 42 58.2 19.4   704 – Lincoln Laboratory ETS, New Mexico MPS 91750
2003 11 21.33600 04 39 56.45 +19 42 57.4 19.8   704 – Lincoln Laboratory ETS, New Mexico MPS 91750
2003 11 21.34889 04 39 55.71 +19 42 59.8 19.9   704 – Lincoln Laboratory ETS, New Mexico MPS 91750
2003 11 21.36172 04 39 54.88 +19 43 00.3 20.1   704 – Lincoln Laboratory ETS, New Mexico MPS 91750
2003 11 21.37453 04 39 54.17 +19 43 00.7 19.8   704 – Lincoln Laboratory ETS, New Mexico MPS 91750
2003 11 23.27489 04 38 00.84 +19 45 45.8 18.9   704 – Lincoln Laboratory ETS, New Mexico MPS 91750
2003 11 23.28742 04 38 00.13 +19 45 47.5 19.2   704 – Lincoln Laboratory ETS, New Mexico MPS 91750
2003 11 23.29993 04 37 59.47 +19 45 47.9 19.4   704 – Lincoln Laboratory ETS, New Mexico MPS 91750
2003 11 23.31252 04 37 58.55 +19 45 50.3 19.3   704 – Lincoln Laboratory ETS, New Mexico MPS 91750
2003 11 23.32510 04 37 57.84 +19 45 51.6 19.6   704 – Lincoln Laboratory ETS, New Mexico MPS 91750
2003 11 30.25264 04 30 52.38 +19 55 39.2 19.4 V 291 – LPL/Spacewatch II MPS 92663
2003 11 30.27721 04 30 50.82 +19 55 41.2 19.4 V 291 – LPL/Spacewatch II MPS 92663
2003 11 30.30184 04 30 49.24 +19 55 43.4 19.3 V 291 – LPL/Spacewatch II MPS 92663
2003 12 17.24861 04 13 50.31 +20 18 28.9 19.5 R 699 – Lowell Observatory-LONEOS MPS 93648
2003 12 17.24944 04 13 50.31 +20 18 28.7 19.6 R 699 – Lowell Observatory-LONEOS MPS 93648
2003 12 17.26196 04 13 49.54 +20 18 29.9   699 – Lowell Observatory-LONEOS MPS 93648
2003 12 17.26281 04 13 49.57 +20 18 30.4   699 – Lowell Observatory-LONEOS MPS 93648
2003 12 17.27531 04 13 48.79 +20 18 30.0   699 – Lowell Observatory-LONEOS MPS 93648
2003 12 17.27615 04 13 48.91 +20 18 30.7   699 – Lowell Observatory-LONEOS MPS 93648
2003 12 17.28856 04 13 48.08 +20 18 31.6   699 – Lowell Observatory-LONEOS MPS 93648
